Content
SEND FEEDBACK

Daily
Averages
Monthly
Summary
United States of America

CAMP QUEZON, GUAM


Home > North America > United States > Guam
Elevation: 82 meters     Latitude: 13 28N     Longitude: 144 48E

WEATHER
 
SELECT A DAY
Number of Records: 214,811;   Date Range: 1/1/95 - 11/22/14
 
SHARE

PRINT THIS DATA

[ ← Previous Day ]
WEATHER ALMANAC - 26 MARCH, 2013
[ Next Day → ]
[ °F ]   °C
Weather ElementAverageHighLow
Temperature27.8 °C31.1 °C (2:54 pm)26 °C (8:26 am)
Dewpoint23.1 °C24 °C (8:39 am)22.2 °C (12:54 pm)
Humidity75.8 %89 % (8:39 am)61 % (2:54 pm)
Barometer1011.9 hPa1013.5 hPa (9:07 am)1009.1 hPa (2:54 pm)
Wind Speed24 km/h37 km/h (2:54 pm)
Wind Gust50.1 km/h (2:54 pm)
Weather ElementAverage
Visibility14.5 km
Wind DirectionENE (78.8 °)

Weather ElementTotal
Precipitation10.41 mm
Cooling Degree Days10.2 (Base 18.3)
Growing Degree Days18.6 (Base 10)
Averaged from 33 records on 26 March, 2013
WEATHER CONDITIONS BREAKOUT
WIND DIRECTION BREAKOUT
WEATHER BY HOUR - 26 MARCH, 2013
[ °F ]   °C
Local TimeTemperatureDewpointHumidityBarometerVisibilityWind DirectionWind SpeedGust SpeedPrecipitationEventsConditions
1:54 AM27.2 °C22.8 °C77 %1011.2 hPa16.1 kmENE (60°)14.8 km/hClear
2:54 AM27.2 °C22.8 °C77 %1010.5 hPa16.1 kmENE (60°)14.8 km/hPartly Cloudy
3:54 AM26.7 °C23.3 °C81 %1010.5 hPa16.1 kmENE (60°)20.4 km/hClear
4:54 AM26.7 °C22.8 °C79 %1010.5 hPa16.1 kmEast (80°)20.4 km/h0 mmOvercast
5:54 AM26.7 °C22.8 °C79 %1011.2 hPa16.1 kmEast (80°)22.2 km/hMostly Cloudy
6:54 AM26.7 °C22.8 °C79 %1011.5 hPa16.1 kmENE (70°)18.5 km/hMostly Cloudy
7:50 AM27 °C23 °C79 %1012.5 hPa16.1 kmENE (60°)16.7 km/hOvercast
7:54 AM27.2 °C23.3 °C79 %1011.9 hPa11.3 kmENE (70°)31.5 km/h44.4 km/hOvercast
8:04 AM27 °C23 °C79 %1012.9 hPa12.9 kmENE (60°)20.4 km/h35.2 km/h0 mmOvercast
8:26 AM26 °C23 °C83 %1013.2 hPa2.9 kmEast (90°)22.2 km/h37 km/h1.02 mmRainHeavy Rain
8:33 AM26 °C23 °C83 %1013.2 hPa1.9 kmEast (90°)18.5 km/h35.2 km/h2.79 mmRainHeavy Rain
8:39 AM26 °C24 °C89 %1013.2 hPa4.8 kmEast (100°)20.4 km/h3.3 mmRainLight Rain
8:54 AM26.1 °C23.9 °C88 %1012.5 hPa16.1 kmEast (80°)22.2 km/h3.3 mmOvercast
9:07 AM27 °C24 °C84 %1013.5 hPa16.1 kmEast (90°)24.1 km/h35.2 km/hMostly Cloudy
9:10 AM27 °C24 °C84 %1013.5 hPa16.1 kmEast (100°)22.2 km/hMostly Cloudy
9:18 AM27 °C24 °C84 %1013.5 hPa16.1 kmEast (90°)20.4 km/h37 km/hOvercast
9:27 AM27 °C23 °C79 %1013.5 hPa12.9 kmEast (80°)25.9 km/h35.2 km/h0 mmRainLight Rain
9:37 AM27 °C23 °C79 %1013.2 hPa14.5 kmEast (90°)25.9 km/h0 mmRainLight Rain
9:54 AM28.3 °C23.3 °C74 %1012.5 hPa16.1 kmEast (80°)27.8 km/h0 mmMostly Cloudy
10:54 AM28.9 °C23.3 °C72 %1012.5 hPa16.1 kmEast (80°)33.3 km/h42.6 km/hMostly Cloudy
11:54 AM30 °C22.8 °C65 %1011.5 hPa16.1 kmEast (90°)29.6 km/h42.6 km/h0 mmScattered Clouds
12:54 PM30 °C22.2 °C63 %1010.5 hPa16.1 kmEast (80°)31.5 km/h46.3 km/hClear
1:54 PM30.6 °C23.3 °C65 %1009.8 hPa16.1 kmEast (80°)35.2 km/h46.3 km/hMostly Cloudy
2:54 PM31.1 °C22.8 °C61 %1009.1 hPa16.1 kmENE (70°)37 km/h50.1 km/hScattered Clouds
3:54 PM30.6 °C22.2 °C61 %1009.5 hPa16.1 kmENE (70°)29.6 km/h44.4 km/hPartly Cloudy
4:54 PM30.6 °C22.8 °C63 %1009.8 hPa16.1 kmEast (80°)24.1 km/h42.6 km/hPartly Cloudy
5:54 PM28.9 °C22.8 °C69 %1010.2 hPa16.1 kmEast (80°)24.1 km/h35.2 km/hScattered Clouds
6:54 PM28.3 °C23.3 °C74 %1010.8 hPa16.1 kmEast (90°)20.4 km/hClear
7:54 PM28.3 °C22.8 °C72 %1011.5 hPa16.1 kmEast (90°)25.9 km/h37 km/hClear
8:54 PM28.3 °C23.3 °C74 %1012.2 hPa16.1 kmEast (80°)24.1 km/hPartly Cloudy
9:54 PM27.8 °C23.3 °C76 %1012.5 hPa16.1 kmENE (70°)22.2 km/hMostly Cloudy
10:54 PM27.8 °C23.3 °C76 %1012.5 hPa16.1 kmEast (80°)20.4 km/h37 km/hScattered Clouds
11:54 PM27.8 °C23.3 °C76 %1011.9 hPa16.1 kmENE (70°)25.9 km/hClear
Hourly data recorded from PGUM, located 0 kilometers away from Camp Quezon, Guam







STORIES FROM OUR PARTNERS